[[{"header":{"parameterUnit":"m.s-1","parameterCategory":1,"la1":30.2991,"la2":30.254,"lo1":-89.0895,"lo2":-89.0444,"dy":0.0017,"dx":0.0017,"nx":28,"ny":28,"refTime":"2025-04-29T03:00:00:Z","depth":0,"parameterNumber":2,"parameterNumberName":"U-component_of_WINDS"},"data":[0,0,0,0,0,0,0,0,0,0,0,0,0,0,0,0,0,0,0,0,0,0,0,0,0,0,0,0,0,0,0,0,0,0,0,0,0,0,0,0,0,0,0,0,0,0,0,0,0,0,0,0,0,0,0,0,0,0,-1.8058,-1.8058,0,-1.8072,-1.8073,-1.8073,-1.8072,-1.8071,-1.8071,-1.8071,-1.8085,-1.8086,-1.8086,0,0,0,0,0,0,0,0,0,0,0,0,0,-1.803,-1.803,-1.8058,-1.8058,-1.8058,-1.8072,-1.8073,-1.8073,-1.8072,-1.8071,-1.8071,-1.8071,-1.8085,-1.8086,-1.8086,0,0,0,0,0,0,0,0,0,0,0,0,0,-1.8043,-1.803,-1.8058,-1.8059,-1.806,-1.8072,-1.8073,-1.8073,-1.8072,-1.8071,-1.8071,-1.8071,-1.8085,-1.8086,-1.8087,-1.8098,0,0,-1.8089,-1.809,0,0,0,0,0,0,0,0,-1.8042,-1.8044,-1.8059,-1.8059,-1.806,-1.807,-1.8068,-1.8081,-1.8072,-1.8067,-1.8071,-1.8071,-1.808,-1.8082,-1.8085,-1.8099,-1.81,-1.8089,-1.809,-1.809,-1.809,0,0,0,0,0,0,0,-1.8041,-1.8043,-1.8064,-1.8059,-1.806,-1.806,-1.8061,-1.807,-1.8075,-1.8067,-1.8067,-1.8069,-1.808,-1.8084,-1.8085,-1.81,-1.8089,-1.809,-1.8091,-1.8091,-1.8125,-1.8126,0,0,0,0,0,0,-1.804,-1.8042,-1.8063,-1.8064,-1.805,-1.806,-1.8062,-1.8067,-1.8075,-1.8076,-1.8069,-1.8069,-1.8083,-1.8084,-1.8086,-1.81,-1.809,-1.8091,-1.8091,-1.8125,-1.8125,-1.8126,0,0,0,0,0,0,-1.8039,-1.8042,-1.8063,-1.8053,-1.8056,-1.8061,-1.8067,-1.8067,-1.8071,-1.8077,-1.8078,-1.8072,-1.8083,-1.8085,-1.8096,-1.8101,-1.8091,-1.8092,-1.8125,-1.8125,-1.8126,-1.813,0,0,0,0,0,0,-1.8038,-1.8041,-1.8046,-1.8053,-1.8056,-1.8072,-1.8067,-1.8068,-1.8073,-1.8072,-1.808,-1.8081,-1.8083,-1.8094,-1.8096,-1.8102,-1.8093,-1.8124,-1.8125,-1.8125,-1.8129,-1.813,-1.8132,0,0,0,0,0,-1.8037,-1.8046,-1.8046,-1.8049,-1.8062,-1.8072,-1.8074,-1.8076,-1.8073,-1.8078,-1.8082,-1.808,-1.81,-1.8095,-1.8098,-1.8104,-1.8124,-1.8125,-1.8125,-1.8129,-1.813,-1.8131,0,0,0,0,0,0,-1.8038,-1.8047,-1.8047,-1.8058,-1.8065,-1.8072,-1.8078,-1.8078,-1.8085,-1.8084,-1.8086,-1.8088,-1.8099,-1.8103,-1.8097,-1.8116,-1.8112,-1.8113,-1.8113,-1.8115,-1.8116,-1.8114,-1.8094,0,0,0,0,0,-1.804,-1.8048,-1.8055,-1.8064,-1.8067,-1.8072,-1.8077,-1.8078,-1.8084,-1.8087,-1.8092,-1.8098,-1.8106,-1.811,-1.8118,-1.813,-1.8132,-1.8136,-1.8137,-1.8138,-1.8139,-1.8146,-1.8148,-1.8129,-1.8129,-1.8129,0,0,-1.8043,-1.8049,-1.8053,-1.8065,-1.807,-1.8077,-1.8074,-1.8082,-1.8088,-1.8088,-1.8099,-1.8103,-1.811,-1.8122,-1.8127,-1.8125,-1.8144,-1.8139,-1.814,-1.814,-1.8147,-1.8149,-1.815,-1.8129,-1.8129,-1.8129,0,0,-1.8053,-1.8058,-1.8067,-1.8072,-1.808,-1.8083,-1.8086,-1.8093,-1.8096,-1.8107,-1.8107,-1.8114,-1.8127,-1.8133,-1.8137,-1.8151,-1.815,-1.8153,-1.8159,-1.8166,-1.8167,-1.8169,-1.8173,-1.8175,-1.8154,-1.8154,-1.8154,0,-1.8056,-1.8068,-1.8071,-1.808,-1.8085,-1.8086,-1.8095,-1.81,-1.811,-1.8113,-1.8111,-1.8128,-1.8133,-1.8146,-1.815,-1.8153,-1.8156,-1.8152,-1.8167,-1.8168,-1.817,-1.8174,-1.8176,-1.8155,-1.8155,-1.8155,-1.8155,0,-1.8071,-1.8079,-1.8086,-1.8095,-1.8101,-1.811,-1.8115,-1.8121,-1.8122,-1.8126,-1.8137,-1.8144,-1.8152,-1.8156,-1.8157,-1.817,-1.8168,-1.8166,-1.8162,-1.8172,-1.8176,-1.8178,-1.8155,-1.8155,-1.8155,-1.8155,0,0,-1.808,-1.8093,-1.8095,-1.81,-1.811,-1.8116,-1.8126,-1.8135,-1.814,-1.8147,-1.8155,-1.8167,-1.8165,-1.8171,-1.8173,-1.8179,-1.8189,-1.8176,-1.8177,-1.8178,-1.8204,-1.8204,-1.8206,-1.8189,-1.819,-1.819,-1.8203,0,-1.8091,-1.8107,-1.8111,-1.8125,-1.8133,-1.8135,-1.8143,-1.815,-1.8154,-1.8162,-1.8166,-1.8174,-1.8172,-1.8176,-1.8182,-1.8187,-1.8194,-1.8186,-1.8196,-1.8197,-1.8194,-1.8208,-1.8209,-1.8221,-1.8205,-1.8205,-1.8205,0,-1.8105,-1.8113,-1.8128,-1.8137,-1.8141,-1.8148,-1.8157,-1.8164,-1.8173,-1.8175,-1.8182,-1.8183,-1.8193,-1.8189,-1.8203,-1.8197,-1.8202,-1.8205,-1.8206,-1.8206,-1.8201,-1.8209,-1.8224,-1.8226,-1.8208,-1.8208,-1.8207,0,-1.811,-1.8124,-1.8135,-1.814,-1.8151,-1.8156,-1.8161,-1.8169,-1.8174,-1.8183,-1.8186,-1.8196,-1.8201,-1.8208,-1.8212,-1.8209,-1.8226,-1.8222,-1.8228,-1.8228,-1.8231,-1.823,-1.8247,-1.8235,-1.8235,-1.8235,-1.8235,0,-1.8121,-1.8129,-1.8138,-1.8145,-1.8155,-1.816,-1.817,-1.8175,-1.8182,-1.819,-1.8193,-1.82,-1.8206,-1.8214,-1.8217,-1.8228,-1.8231,-1.8233,-1.8234,-1.8232,-1.8232,-1.8235,-1.8234,-1.8235,-1.8235,-1.8235,-1.8235,0,-1.8127,-1.8133,-1.8145,-1.8156,-1.8158,-1.8166,-1.8174,-1.8181,-1.8186,-1.8196,-1.8198,-1.8206,-1.8216,-1.8221,-1.8233,-1.8236,-1.8248,-1.8249,-1.8245,-1.8245,-1.8251,-1.825,-1.8269,-1.8272,-1.8259,-1.8259,-1.8259,0,-1.8133,-1.8141,-1.8152,-1.8157,-1.8163,-1.8172,-1.8178,-1.8183,-1.8189,-1.82,-1.8205,-1.8216,-1.8224,-1.824,-1.8246,-1.8256,-1.8256,-1.8262,-1.8257,-1.8256,-1.8256,-1.8255,-1.8256,-1.8263,-1.8263,-1.8263,-1.8263,0,-1.8144,-1.8147,-1.8155,-1.8165,-1.8173,-1.8181,-1.8189,-1.8193,-1.82,-1.8207,-1.8218,-1.8224,-1.8237,-1.8247,-1.8257,-1.8263,-1.8264,-1.8265,-1.8266,-1.8265,-1.8262,-1.8263,-1.8247,-1.8264,-1.8264,-1.8264,-1.8264,-1.8263,-1.815,-1.8157,-1.8166,-1.8176,-1.8183,-1.819,-1.8197,-1.8204,-1.8212,-1.8223,-1.8226,-1.8237,-1.8246,-1.826,-1.8266,-1.8275,-1.8273,-1.8276,-1.8277,-1.8277,-1.8277,-1.8262,-1.8277,-1.8277,-1.8277,-1.8277,-1.8277,0,-1.816,-1.8167,-1.8176,-1.8187,-1.8195,-1.8197,-1.8206,-1.8212,-1.8222,-1.823,-1.8239,-1.8251,-1.8261,-1.8269,-1.8279,-1.8285,-1.8286,-1.8287,-1.8286,-1.8288,-1.8278,-1.8275,-1.8286,-1.8286,-1.8286,-1.8286,-1.8286,-1.8286,-1.8166,-1.8178,-1.8182,-1.8197,-1.8203,-1.8214,-1.822,-1.8227,-1.8234,-1.8247,-1.8256,-1.8261,-1.8269,-1.828,-1.829,-1.8292,-1.8295,-1.8297,-1.8299,-1.8289,-1.8288,-1.8287,-1.8284,-1.8298,-1.8298,-1.8308,-1.8308,-1.8308]},{"header":{"parameterUnit":"m.s-1","parameterCategory":1,"la1":30.2991,"la2":30.254,"lo1":-89.0895,"lo2":-89.0444,"dy":0.0017,"dx":0.0017,"nx":28,"ny":28,"refTime":"2025-04-29T03:00:00:Z","depth":0,"parameterNumber":3,"parameterNumberName":"V-component_of_WINDS"},"data":[0,0,0,0,0,0,0,0,0,0,0,0,0,0,0,0,0,0,0,0,0,0,0,0,0,0,0,0,0,0,0,0,0,0,0,0,0,0,0,0,0,0,0,0,0,0,0,0,0,0,0,0,0,0,0,0,0,0,2.3544,2.3543,0,2.3487,2.3486,2.3485,2.3413,2.3412,2.3411,2.341,2.3351,2.335,2.335,0,0,0,0,0,0,0,0,0,0,0,0,0,2.3588,2.3588,2.3544,2.3543,2.3542,2.3487,2.3486,2.3485,2.3414,2.3412,2.3411,2.3409,2.3351,2.335,2.335,0,0,0,0,0,0,0,0,0,0,0,0,0,2.3554,2.3588,2.3544,2.35,2.3495,2.3487,2.3486,2.3485,2.3414,2.3412,2.341,2.3409,2.3351,2.335,2.335,2.338,0,0,2.3347,2.3347,0,0,0,0,0,0,0,0,2.3556,2.3552,2.3507,2.3503,2.3498,2.3455,2.348,2.345,2.3414,2.3445,2.341,2.3408,2.3387,2.3383,2.3376,2.3377,2.3374,2.3347,2.3347,2.3346,2.3346,0,0,0,0,0,0,0,2.3559,2.3555,2.3521,2.3506,2.3501,2.3482,2.3476,2.3474,2.3426,2.3442,2.3437,2.3431,2.3384,2.3377,2.3374,2.3373,2.3347,2.3347,2.3346,2.3346,2.3395,2.3396,0,0,0,0,0,0,2.3568,2.3557,2.3523,2.3519,2.3523,2.3483,2.3475,2.3471,2.3426,2.3418,2.3432,2.3428,2.3379,2.3375,2.3372,2.3403,2.3346,2.3346,2.3345,2.3393,2.3395,2.3397,0,0,0,0,0,0,2.3569,2.3565,2.3525,2.3537,2.353,2.3484,2.3479,2.347,2.3463,2.3419,2.341,2.3434,2.3378,2.3373,2.3378,2.34,2.3345,2.3345,2.3391,2.3394,2.3396,2.3467,0,0,0,0,0,0,2.3571,2.3566,2.3578,2.3537,2.353,2.3533,2.3481,2.3471,2.3462,2.3456,2.3418,2.341,2.3376,2.338,2.3377,2.3398,2.3344,2.3389,2.3392,2.3395,2.3463,2.3472,2.348,0,0,0,0,0,2.3572,2.36,2.3579,2.3575,2.3543,2.3534,2.353,2.349,2.3465,2.3475,2.3446,2.3411,2.3398,2.3381,2.3378,2.3399,2.3387,2.3391,2.3395,2.3459,2.347,2.348,0,0,0,0,0,0,2.3644,2.3594,2.357,2.3585,2.3565,2.3522,2.3535,2.3504,2.349,2.3484,2.3435,2.3427,2.3438,2.3419,2.34,2.3425,2.3387,2.3391,2.3437,2.3448,2.3456,2.3461,2.3343,0,0,0,0,0,2.3662,2.3659,2.3615,2.3633,2.3624,2.3582,2.3576,2.3547,2.3524,2.3515,2.3486,2.3465,2.3455,2.345,2.3439,2.346,2.345,2.3472,2.3481,2.3488,2.3492,2.35,2.351,2.341,2.341,2.341,0,0,2.3698,2.367,2.3672,2.3647,2.3628,2.3626,2.3575,2.3575,2.3573,2.3515,2.3518,2.3496,2.3468,2.3481,2.3485,2.3465,2.3517,2.3493,2.35,2.3499,2.3505,2.3515,2.3523,2.3412,2.3412,2.3412,0,0,2.3763,2.3742,2.3754,2.3736,2.3707,2.3679,2.3682,2.3644,2.3627,2.363,2.3586,2.3582,2.3568,2.355,2.3539,2.3596,2.3563,2.3594,2.3639,2.3648,2.3656,2.3662,2.3682,2.369,2.3597,2.3598,2.3598,0,2.3812,2.3807,2.3764,2.3767,2.3757,2.3705,2.3717,2.3701,2.367,2.3664,2.3642,2.3622,2.36,2.3607,2.3621,2.3614,2.3616,2.3598,2.3658,2.3664,2.367,2.3688,2.3696,2.3602,2.3601,2.3601,2.36,0,2.3868,2.3866,2.3879,2.3851,2.3843,2.385,2.3808,2.3804,2.3776,2.3749,2.3752,2.3723,2.3705,2.3705,2.3677,2.3708,2.3696,2.3667,2.3628,2.3684,2.3701,2.3707,2.3607,2.3606,2.3605,2.3604,0,0,2.3977,2.3925,2.3931,2.3917,2.3881,2.3878,2.3883,2.3865,2.3863,2.3843,2.3846,2.3834,2.3806,2.3794,2.3764,2.3771,2.3818,2.3741,2.3739,2.3756,2.3849,2.3872,2.3881,2.3796,2.3797,2.3798,2.3852,0,2.4036,2.4041,2.4002,2.4018,2.4015,2.3964,2.3968,2.3946,2.3921,2.3915,2.3886,2.3879,2.3843,2.3835,2.3841,2.3812,2.3836,2.3807,2.3797,2.3797,2.3806,2.389,2.3913,2.3966,2.3858,2.3859,2.386,0,2.4105,2.4089,2.4105,2.4067,2.4064,2.4069,2.4049,2.4044,2.4017,2.3999,2.3985,2.395,2.3951,2.3914,2.3914,2.3895,2.3888,2.3873,2.3874,2.3872,2.3832,2.3889,2.3981,2.3989,2.387,2.3869,2.3868,0,2.4183,2.4165,2.4172,2.4162,2.4119,2.4123,2.4105,2.4077,2.4069,2.4051,2.4046,2.4029,2.402,2.4007,2.3968,2.3945,2.3972,2.3933,2.3956,2.3957,2.3965,2.3965,2.4057,2.3961,2.3961,2.396,2.396,0,2.4252,2.4263,2.4206,2.4211,2.4221,2.4176,2.4188,2.4165,2.4141,2.4139,2.4094,2.4093,2.4042,2.4035,2.4005,2.4009,2.4005,2.3989,2.3981,2.3994,2.3996,2.3989,2.3984,2.3962,2.3962,2.3962,2.3961,0,2.4341,2.4303,2.4307,2.4266,2.4256,2.4266,2.423,2.4232,2.4204,2.4202,2.4199,2.4155,2.4144,2.4104,2.4084,2.4063,2.4078,2.4062,2.4087,2.4082,2.4107,2.4106,2.4198,2.4208,2.4106,2.4107,2.4108,0,2.4388,2.4395,2.4355,2.4351,2.4335,2.4329,2.432,2.4275,2.4268,2.4238,2.4244,2.423,2.4216,2.4202,2.4167,2.4151,2.4135,2.4168,2.4132,2.4144,2.4135,2.4135,2.4135,2.4176,2.4177,2.4179,2.4179,0,2.4475,2.4456,2.4445,2.4428,2.4419,2.4404,2.4385,2.4384,2.4334,2.4328,2.4317,2.4307,2.4286,2.4273,2.4251,2.4231,2.4197,2.4191,2.4196,2.4208,2.4223,2.4215,2.4108,2.4189,2.4188,2.4187,2.4187,2.4187,2.4544,2.4548,2.452,2.451,2.4491,2.4475,2.4475,2.4446,2.4436,2.4416,2.439,2.4383,2.4355,2.4322,2.4305,2.4298,2.4279,2.4285,2.4287,2.429,2.4295,2.4224,2.4293,2.4293,2.4293,2.4292,2.4292,0,2.4629,2.4608,2.4599,2.4575,2.4567,2.4535,2.4513,2.4508,2.4502,2.4479,2.4466,2.4453,2.4439,2.4404,2.4386,2.4387,2.4371,2.4384,2.4384,2.438,2.4313,2.4311,2.4398,2.4398,2.4398,2.4398,2.4398,2.4398,2.4672,2.4677,2.4655,2.465,2.4628,2.4621,2.4611,2.4595,2.4577,2.4564,2.4553,2.453,2.4501,2.4481,2.4467,2.4457,2.4452,2.4471,2.4456,2.4394,2.4384,2.4375,2.4372,2.447,2.447,2.4522,2.4523,2.4523]}]]